Lapse_Rate
7.0 6.4 6.4 6.7 6.8 6.8 6.9 7.1 6.9 6.6 6.5 6.5 6.5 6.8 6.3 6.0 6.0 5.5 6.5 6.3 6.4 6.7 7.0 7.0 6.8 6.8 6.7 6.6 6.6 6.4 6.3 6.3
7.3 6.8 6.6 6.6 7.0 7.0 7.0 7.2 7.1 7.0 6.9 6.6 6.7 6.8 6.8 6.4 6.2 5.1 5.5 6.2 6.1 6.2 6.8 7.0 6.7 6.7 6.7 6.8 6.6 6.6 6.4 6.2
7.5 7.1 6.7 6.7 6.9 7.1 7.1 7.2 7.1 7.0 7.0 6.6 6.5 6.4 6.3 6.1 5.9 5.7 5.2 5.6 6.1 6.2 6.6 7.0 6.5 6.7 6.7 6.6 6.4 6.4 6.6 6.5
7.6 7.3 7.0 6.7 6.7 6.9 7.2 7.2 7.1 6.9 6.8 6.6 6.5 6.4 6.1 6.1 5.8 5.5 5.5 5.0 5.8 6.2 6.2 6.6 6.7 7.0 7.2 7.0 6.7 6.6 6.7 6.4
7.9 7.5 7.4 6.9 6.8 6.9 7.3 7.2 7.0 6.6 6.5 6.2 6.2 6.2 5.9 6.0 5.6 5.7 5.5 5.5 5.8 6.0 6.2 6.3 7.0 7.2 7.3 6.8 6.8 6.9 6.3 6.4
7.9 7.7 7.6 7.2 7.1 7.2 7.3 7.2 7.0 6.7 6.6 6.1 6.0 5.9 5.6 5.7 5.8 5.6 5.6 5.3 5.8 5.8 6.2 6.1 6.8 6.6 6.9 6.8 6.7 6.4 6.8 6.3
7.9 7.8 7.8 7.5 7.4 7.4 7.4 7.3 7.1 6.4 6.2 5.9 5.7 5.6 5.5 5.4 5.5 5.6 5.7 5.3 5.1 5.7 5.9 6.2 6.8 6.8 6.8 6.4 6.4 6.2 6.3 6.4
8.1 7.9 7.9 7.6 7.5 7.4 7.4 7.3 6.8 6.0 5.8 5.7 5.8 5.8 5.4 5.4 5.4 5.3 5.4 5.4 4.8 5.7 5.9 6.2 6.4 6.3 6.4 6.0 6.2 6.1 6.4 6.4
8.2 7.8 7.8 7.6 7.6 7.4 7.3 7.2 6.6 5.9 5.8 5.7 5.9 5.6 5.6 5.6 5.5 5.1 5.1 5.4 5.1 5.8 5.3 5.9 6.0 5.9 5.8 6.1 6.3 6.2 6.5 6.2
8.5 7.8 7.9 7.6 7.6 7.4 7.2 7.3 6.7 6.1 5.9 5.7 6.1 5.7 5.6 5.5 5.5 5.3 5.3 5.2 5.5 5.7 5.5 5.6 5.7 5.6 5.7 6.0 6.1 6.2 6.2 6.2
8.5 8.1 7.8 7.5 7.6 7.4 7.2 7.5 6.9 6.3 6.0 5.8 6.5 5.2 5.4 5.4 5.4 5.4 5.3 4.8 5.3 5.6 5.8 5.8 5.7 5.7 5.6 5.8 5.8 6.0 6.1 6.1
8.5 8.1 7.7 7.5 7.7 7.4 7.3 7.6 6.8 6.2 6.0 6.0 5.9 5.4 5.2 5.4 5.4 5.2 5.2 4.7 5.1 5.1 5.5 5.9 5.6 5.4 5.3 5.7 5.3 5.7 5.8 5.8
8.7 8.3 7.6 7.6 7.6 7.4 7.5 7.6 6.8 6.1 6.1 6.5 6.1 5.6 5.4 5.5 5.4 5.4 5.2 4.8 5.2 5.2 5.5 5.8 5.8 5.3 5.1 5.2 5.4 5.6 5.7 5.8
8.6 8.4 7.8 7.5 7.7 7.4 7.4 7.5 7.0 6.2 6.1 6.4 6.3 5.3 5.5 5.3 5.3 5.5 5.2 4.8 5.1 5.3 5.6 5.6 5.5 5.6 5.5 5.5 5.6 5.7 5.7 5.8
9.0 8.3 7.9 7.5 7.6 7.4 7.4 7.5 7.0 6.6 6.2 6.4 6.2 5.4 5.1 5.2 5.4 5.5 5.2 5.1 5.5 5.5 5.3 5.5 5.9 5.9 6.0 5.6 5.7 5.9 5.8 5.6
8.9 8.2 7.7 7.5 7.6 7.5 7.4 7.5 7.0 6.4 6.4 6.4 6.1 6.1 5.3 5.1 5.3 5.2 4.9 5.2 5.4 5.5 5.4 5.5 5.6 5.6 5.7 5.5 5.5 5.6 5.5 5.6
8.8 8.0 7.4 7.5 7.5 7.4 7.5 7.5 7.0 6.4 6.2 6.3 6.1 5.8 5.8 5.0 5.0 5.0 4.7 5.1 5.2 5.6 5.4 5.3 5.4 5.4 5.7 5.6 5.7 5.7 5.3 5.3
8.9 8.3 7.7 7.5 7.5 7.4 7.5 7.4 7.1 6.6 6.2 6.2 6.2 5.7 5.5 5.5 4.8 4.8 5.0 5.2 5.4 5.5 5.5 5.2 5.3 5.4 5.3 5.1 5.2 5.4 5.5 5.1
8.6 8.5 8.1 7.7 7.6 7.5 7.5 7.4 7.2 6.6 6.2 6.0 6.1 6.0 5.7 5.6 5.7 5.6 5.4 5.5 5.5 5.5 5.5 5.4 5.1 5.2 5.2 5.1 5.0 4.7 4.7 4.5
8.4 8.5 8.1 7.8 7.5 7.6 7.5 7.5 7.3 6.7 6.2 6.0 5.8 6.1 5.9 5.6 5.8 5.7 5.6 5.5 5.6 5.4 5.4 5.1 4.8 4.6 4.4 4.5 4.6 4.5 4.6 4.5
Wind_Speed
7 14 16 17 20 18 20 22 23 23 23 25 27 34 27 28 22 14 17 18 20 22 21 22 23 22 22 22 22 18 16 14
8 11 15 14 16 20 20 20 23 24 26 27 24 26 22 25 32 16 18 21 21 21 22 22 23 22 23 22 21 19 17 15
7 12 13 15 16 15 20 20 22 21 25 27 26 18 22 23 25 27 24 21 21 19 21 21 22 22 24 24 19 15 15 14
9 10 12 11 11 10 13 17 17 18 20 22 21 15 17 19 23 29 28 23 23 20 20 23 19 16 17 17 14 15 12 14
9 9 8 9 8 7 6 7 11 14 19 20 16 15 16 14 14 17 20 24 18 18 18 14 15 15 12 16 12 13 12 13
8 8 9 8 4 5 4 4 5 7 16 20 14 7 8 9 10 17 17 18 16 13 11 13 14 14 13 16 12 12 15 15
13 12 11 9 7 4 5 5 5 6 12 19 18 9 10 9 8 12 14 20 19 11 11 11 11 12 11 16 12 12 15 15
11 12 10 9 8 8 6 5 6 8 8 16 21 16 9 9 7 8 10 16 19 16 10 8 7 11 8 11 12 13 15 16
15 13 11 11 9 7 6 6 6 7 7 17 23 21 14 13 10 9 9 16 17 16 10 10 7 8 6 10 10 14 14 15
13 12 12 11 9 7 6 7 7 6 8 12 18 20 24 13 11 9 14 14 15 10 8 5 5 6 4 5 5 10 12 13
15 15 15 12 9 7 7 7 6 7 8 9 15 20 20 16 13 10 18 8 9 10 6 8 6 5 6 4 4 5 9 11
14 13 14 12 7 6 6 7 7 6 7 9 17 17 11 16 12 12 14 10 9 9 11 4 4 7 7 4 3 3 5 6
15 16 12 10 7 8 6 7 6 6 6 7 11 12 19 14 12 13 11 12 12 13 10 12 3 5 6 3 4 2 3 2
14 15 14 10 8 7 3 4 4 4 4 7 8 6 13 14 14 13 12 9 11 13 12 6 3 8 4 3 3 1 1 3
13 13 15 12 12 8 4 3 3 3 4 7 8 9 9 11 12 12 12 10 10 13 13 14 7 4 11 4 3 3 2 1
8 11 13 10 11 12 11 9 6 3 5 6 8 10 12 10 11 11 11 9 11 11 10 11 6 9 1 2 3 5 3 1
9 13 12 10 10 10 11 7 4 4 4 7 10 11 12 12 12 11 11 8 10 13 10 8 6 10 5 3 2 3 3 3
13 15 13 11 9 8 10 8 7 7 7 7 6 8 10 13 13 12 11 10 11 11 11 10 7 9 4 4 3 4 3 3
13 17 14 13 11 9 8 8 8 9 8 8 8 7 6 11 14 14 12 13 11 12 11 10 9 8 7 5 3 3 3 2
15 17 14 14 13 9 7 7 5 5 5 4 5 7 8 10 14 14 15 16 13 13 10 9 9 7 9 5 4 3 3 2
Wind_Direction
152 172 187 182 180 180 169 164 162 164 161 158 163 154 163 157 143 177 165 165 144 143 141 135 137 136 131 128 128 119 115 120
167 169 184 186 187 184 177 167 167 175 164 159 158 160 164 167 139 177 174 158 148 149 138 138 141 140 132 132 126 124 117 117
172 179 184 188 196 189 182 178 177 176 169 167 166 172 169 164 158 172 167 157 150 151 144 139 146 143 138 133 126 123 126 122
190 179 180 177 190 191 188 188 184 180 176 171 173 172 170 171 163 169 161 163 151 152 144 145 138 139 134 123 128 134 132 134
194 179 170 170 179 188 180 166 184 182 184 174 171 166 171 170 172 173 162 150 152 145 140 138 144 142 145 128 135 133 140 148
186 186 172 174 163 175 178 175 174 186 187 181 167 172 172 173 180 171 158 158 151 146 143 138 140 146 156 132 140 145 146 144
198 183 183 172 165 153 178 183 189 194 186 184 175 182 182 180 171 159 164 164 151 141 141 137 133 137 143 133 155 147 144 148
188 191 182 166 167 169 186 178 194 204 200 187 183 183 183 182 165 160 159 162 151 149 149 140 141 141 130 145 145 143 150 154
187 179 171 175 174 172 171 177 185 200 195 194 192 186 188 175 174 162 164 151 139 135 132 132 135 137 152 121 151 152 151 154
170 170 172 174 171 167 175 178 191 196 195 195 197 197 185 178 169 163 155 157 146 149 151 135 135 143 150 138 150 144 142 157
171 169 174 171 165 162 176 181 195 204 202 209 210 208 195 181 178 159 152 156 151 153 154 155 147 139 152 140 149 141 154 161
169 170 170 161 156 165 178 193 203 203 205 211 211 208 199 174 159 149 152 155 152 155 158 126 135 155 129 106 89 97 147 157
171 162 168 157 156 178 186 200 201 208 204 207 192 192 212 160 145 149 152 161 159 155 161 149 99 132 105 82 56 84 120 146
172 169 161 167 164 181 160 169 188 189 190 177 167 150 142 145 146 152 157 154 156 158 160 139 119 163 146 114 139 52 265 188
178 167 159 162 171 171 134 129 129 145 167 155 156 141 134 134 143 154 162 159 165 166 166 173 154 203 176 138 138 184 133 168
169 165 160 156 157 178 170 181 172 159 176 164 167 157 148 148 152 157 162 165 170 170 173 175 145 174 171 53 88 137 153 171
158 169 165 155 170 177 174 172 159 147 149 158 162 167 168 162 161 162 169 171 174 169 169 172 167 174 161 146 114 73 78 141
170 173 169 161 177 176 163 152 146 166 175 169 178 169 167 170 172 173 175 176 175 173 173 169 163 173 152 142 149 151 167 162
182 179 170 165 176 185 158 158 162 168 177 185 172 184 182 179 177 181 181 180 174 172 169 164 158 164 162 156 139 144 137 109
190 185 170 163 171 175 162 162 166 173 177 176 190 200 191 187 196 184 184 179 171 173 170 167 152 149 145 140 138 108 89 138